Hays, KS

3:37 AM CDT on May 24, 2017 (GMT -0500)
Hays Regional

Weather History for KHYS - January, 2012

Change the Weather History Date:

Monday, January 16, 2012

  Actual Average Record
Temperature  
Mean Temperature 30 °F -  
Max Temperature 37 °F 41 °F 62 °F (2015)
Min Temperature 24 °F 17 °F 0 °F (2005)
Degree Days  
Heating Degree Days 34    
Moisture  
Dew Point 21 °F    
Average Humidity 65    
Maximum Humidity 80    
Minimum Humidity 52    
Precipitation  
Precipitation 0.00 in - - ()
Sea Level Pressure  
Sea Level Pressure 29.71 in    
Wind  
Wind Speed 10 mph (NNW)    
Max Wind Speed 17 mph    
Max Gust Speed 20 mph    
Visibility 10 miles    
Events      
Averages and records for this station are not official NWS values.
T = Trace of Precipitation, MM = Missing Value Source: NWS Daily Summary

Daily Weather History Graph

Daily Weather History Graph

Search for Another Location

Airport or City:

Trip Planner

Search our weather history database for the weather conditions in past years. The results will help you decide how hot, cold, wet, or windy it might be!

Date:

Astronomy

Jan. 16, 2012 Rise Set
Actual Time 7:53 AM CST 5:39 PM CST
Civil Twilight 7:24 AM CST 6:09 PM CST
Nautical Twilight 6:51 AM CST 6:41 PM CST
Astronomical Twilight 6:20 AM CST 7:13 PM CST
Moon 1:05 AM CST (1/16) 11:54 AM CST (1/16)
Length of Visible Light 10h 44m
Length of Day
9h 46m
Last Quarter, 46% of the Moon is Illuminated
Jan 16
Last Quarter
Jan 23
New
Jan 30
First Quarter
Feb 7
Full
Feb 14
Last Quarter

Hourly Weather History & Observations

Time (CST) Temp. Windchill Dew Point Humidity Pressure Visibility Wind Dir Wind Speed Gust Speed Precip Events Conditions
12:15 AM 28.4 °F 20.4 °F 19.4 °F 69% 29.64 in 10.0 mi South 8.1 mph - N/A   Clear
12:35 AM 28.4 °F 20.4 °F 21.2 °F 74% 29.64 in 10.0 mi South 8.1 mph - N/A   Clear
12:55 AM 30.2 °F 24.3 °F 21.2 °F 69% 29.63 in 10.0 mi SSW 5.8 mph - N/A   Clear
1:15 AM 32.0 °F 25.6 °F 21.2 °F 64% 29.61 in 10.0 mi South 6.9 mph - N/A   Clear
1:35 AM 30.2 °F 25.4 °F 21.2 °F 69% 29.60 in 10.0 mi SSW 4.6 mph - N/A   Clear
1:55 AM 32.0 °F 26.4 °F 21.2 °F 64% 29.61 in 10.0 mi WSW 5.8 mph - N/A   Clear
2:15 AM 30.2 °F 22.6 °F 19.4 °F 64% 29.60 in 10.0 mi SW 8.1 mph - N/A   Clear
2:35 AM 30.2 °F 22.6 °F 19.4 °F 64% 29.61 in 10.0 mi WSW 8.1 mph - N/A   Clear
2:55 AM 28.4 °F 22.2 °F 19.4 °F 69% 29.61 in 10.0 mi West 5.8 mph - N/A   Clear
3:15 AM 26.6 °F 21.2 °F 17.6 °F 69% 29.61 in 10.0 mi WNW 4.6 mph - N/A   Clear
3:35 AM 24.8 °F 17.9 °F 17.6 °F 74% 29.61 in 10.0 mi NNW 5.8 mph - N/A   Clear
3:55 AM 28.4 °F 18.5 °F 21.2 °F 74% 29.62 in 10.0 mi NW 11.5 mph - N/A   Clear
4:15 AM 28.4 °F 19.1 °F 19.4 °F 69% 29.62 in 10.0 mi North 10.4 mph - N/A   Clear
4:35 AM 26.6 °F 17.5 °F 19.4 °F 74% 29.63 in 10.0 mi NNW 9.2 mph - N/A   Clear
4:55 AM 26.6 °F 15.7 °F 19.4 °F 74% 29.64 in 10.0 mi NNW 12.7 mph - N/A   Clear
5:15 AM 26.6 °F 16.8 °F 19.4 °F 74% 29.66 in 10.0 mi NNW 10.4 mph - N/A   Clear
5:35 AM 26.6 °F 16.8 °F 21.2 °F 80% 29.66 in 10.0 mi NNW 10.4 mph - N/A   Clear
5:55 AM 26.6 °F 15.7 °F 21.2 °F 80% 29.67 in 10.0 mi NNW 12.7 mph - N/A   Clear
6:15 AM 28.4 °F 18.5 °F 21.2 °F 74% 29.69 in 10.0 mi NNW 11.5 mph - N/A   Clear
6:35 AM 28.4 °F 18.5 °F 21.2 °F 74% 29.69 in 10.0 mi North 11.5 mph - N/A   Clear
6:55 AM 28.4 °F 18.0 °F 21.2 °F 74% 29.70 in 10.0 mi North 12.7 mph - N/A   Clear
7:15 AM 28.4 °F 18.0 °F 21.2 °F 74% 29.72 in 10.0 mi NNW 12.7 mph - N/A   Clear
7:35 AM 28.4 °F 17.5 °F 21.2 °F 74% 29.73 in 10.0 mi NNW 13.8 mph - N/A   Clear
7:55 AM 26.6 °F 16.2 °F 21.2 °F 80% 29.73 in 10.0 mi NNW 11.5 mph - N/A   Clear
8:15 AM 26.6 °F 16.2 °F 21.2 °F 80% 29.74 in 10.0 mi NNW 11.5 mph - N/A   Clear
8:35 AM 28.4 °F 18.5 °F 21.2 °F 74% 29.75 in 10.0 mi NW 11.5 mph - N/A   Clear
8:55 AM 28.4 °F 19.1 °F 21.2 °F 74% 29.78 in 10.0 mi NW 10.4 mph - N/A   Clear
9:15 AM 30.2 °F 19.3 °F 21.2 °F 69% 29.77 in 10.0 mi NNW 15.0 mph - N/A   Clear
9:35 AM 30.2 °F 19.8 °F 21.2 °F 69% 29.78 in 10.0 mi NNW 13.8 mph - N/A   Clear
9:55 AM 32.0 °F 21.6 °F 23.0 °F 69% 29.79 in 10.0 mi NNW 15.0 mph 19.6 mph N/A   Clear
10:15 AM 32.0 °F 22.1 °F 21.2 °F 64% 29.79 in 10.0 mi North 13.8 mph - N/A   Clear
10:35 AM 33.8 °F 23.2 °F 21.2 °F 60% 29.79 in 10.0 mi NNW 17.3 mph - N/A   Clear
10:55 AM 33.8 °F 24.3 °F 21.2 °F 60% 29.79 in 10.0 mi North 13.8 mph - N/A   Clear
11:15 AM 33.8 °F 23.9 °F 21.2 °F 60% 29.79 in 10.0 mi North 15.0 mph - N/A   Clear
11:35 AM 35.6 °F 25.5 °F 21.2 °F 56% 29.77 in 10.0 mi North 17.3 mph - N/A   Clear
11:55 AM 35.6 °F 27.5 °F 21.2 °F 56% 29.78 in 10.0 mi North 11.5 mph - N/A   Clear
12:15 PM 35.6 °F 28.0 °F 21.2 °F 56% 29.77 in 10.0 mi North 10.4 mph - N/A   Clear
12:35 PM 35.6 °F 27.5 °F 21.2 °F 56% 29.76 in 10.0 mi North 11.5 mph - N/A   Clear
12:55 PM 35.6 °F 27.1 °F 21.2 °F 56% 29.76 in 10.0 mi North 12.7 mph - N/A   Clear
1:15 PM 37.4 °F 29.3 °F 23.0 °F 56% 29.75 in 10.0 mi North 12.7 mph - N/A   Clear
1:35 PM 37.4 °F 30.3 °F 23.0 °F 56% 29.75 in 10.0 mi North 10.4 mph - N/A   Clear
1:55 PM 37.4 °F 29.8 °F 21.2 °F 52% 29.73 in 10.0 mi North 11.5 mph - N/A   Clear
2:15 PM 37.4 °F 30.3 °F 23.0 °F 56% 29.73 in 10.0 mi North 10.4 mph - N/A   Clear
2:35 PM 37.4 °F 29.3 °F 23.0 °F 56% 29.72 in 10.0 mi North 12.7 mph - N/A   Clear
2:55 PM 37.4 °F 30.3 °F 23.0 °F 56% 29.72 in 10.0 mi North 10.4 mph - N/A   Clear
3:15 PM 37.4 °F 30.3 °F 23.0 °F 56% 29.73 in 10.0 mi North 10.4 mph - N/A   Clear
3:35 PM 37.4 °F 31.4 °F 21.2 °F 52% 29.75 in 10.0 mi North 8.1 mph - N/A   Clear
3:55 PM 37.4 °F 30.8 °F 21.2 °F 52% 29.75 in 10.0 mi North 9.2 mph - N/A   Clear
4:15 PM 37.4 °F 29.3 °F 21.2 °F 52% 29.75 in 10.0 mi NNE 12.7 mph - N/A   Clear
4:35 PM 35.6 °F 27.1 °F 21.2 °F 56% 29.74 in 10.0 mi NNE 12.7 mph - N/A   Clear
4:55 PM 35.6 °F 27.1 °F 21.2 °F 56% 29.74 in 10.0 mi NNE 12.7 mph - N/A   Clear
5:15 PM 33.8 °F 24.8 °F 21.2 °F 60% 29.74 in 10.0 mi NNE 12.7 mph - N/A   Clear
5:35 PM 32.0 °F 22.5 °F 19.4 °F 60% 29.73 in 10.0 mi NNE 12.7 mph - N/A   Clear
5:55 PM 30.2 °F 21.9 °F 19.4 °F 64% 29.75 in 10.0 mi NNE 9.2 mph - N/A   Clear
6:15 PM 30.2 °F 21.9 °F 19.4 °F 64% 29.76 in 10.0 mi NNE 9.2 mph - N/A   Clear
6:35 PM 28.4 °F 20.4 °F 19.4 °F 69% 29.77 in 10.0 mi NNE 8.1 mph - N/A   Clear
6:55 PM 26.6 °F 18.2 °F 19.4 °F 74% 29.77 in 10.0 mi NNE 8.1 mph - N/A   Clear
7:15 PM 26.6 °F 18.2 °F 19.4 °F 74% 29.77 in 10.0 mi NNE 8.1 mph - N/A   Clear
7:35 PM 28.4 °F 20.4 °F 21.2 °F 74% 29.78 in 10.0 mi NE 8.1 mph - N/A   Partly Cloudy
8:15 PM 28.4 °F 16.6 °F 19.4 °F 69% 29.81 in 10.0 mi North 16.1 mph - N/A   Scattered Clouds
8:55 PM 28.4 °F 15.8 °F 15.8 °F 59% 29.84 in 10.0 mi North 18.4 mph 25.3 mph N/A   Mostly Cloudy
9:15 PM 28.4 °F 14.4 °F 15.8 °F 59% 29.87 in 10.0 mi North 23.0 mph 26.5 mph N/A   Mostly Cloudy
9:35 PM 26.6 °F 12.4 °F 14.0 °F 59% 29.90 in 10.0 mi North 21.9 mph 28.8 mph N/A   Overcast
9:55 PM 24.8 °F 10.7 °F 14.0 °F 64% 29.90 in 7.0 mi North 19.6 mph 26.5 mph N/A   Overcast
10:15 PM 23.0 °F 8.0 °F 15.8 °F 74% 29.91 in 2.0 mi North 20.7 mph 27.6 mph N/A   Overcast
10:35 PM 21.2 °F 7.3 °F 15.8 °F 80% 29.95 in 2.5 mi North 16.1 mph 31.1 mph N/A   Overcast
10:55 PM 23.0 °F 8.3 °F 12.2 °F 63% 29.94 in 10.0 mi North 19.6 mph - N/A   Overcast
11:15 PM 21.2 °F 4.9 °F 10.4 °F 63% 29.94 in 10.0 mi North 23.0 mph 32.2 mph N/A   Overcast
11:35 PM 21.2 °F 6.0 °F 12.2 °F 68% 29.97 in 10.0 mi North 19.6 mph - N/A   Overcast
11:55 PM 21.2 °F 4.9 °F 10.4 °F 63% 30.00 in 10.0 mi NNW 23.0 mph 27.6 mph N/A   Overcast